, FL

(GMT )
Whiting Fld NAS

Weather History for KNSE - March, 2013

Change the Weather History Date:

Sunday, March 31, 2013

  Actual Average Record
Temperature  
Mean Temperature 66 °F -  
Max Temperature 81 °F 72 °F 84 °F (2012)
Min Temperature 52 °F 52 °F 32 °F (2003)
Growing Degree Days 16 (Base 50)    
Moisture  
Dew Point 57 °F    
Average Humidity 82    
Maximum Humidity 94    
Minimum Humidity 47    
Precipitation  
Precipitation 0.00 in - - ()
Sea Level Pressure  
Sea Level Pressure 30.00 in    
Wind  
Wind Speed 3 mph (SSW)    
Max Wind Speed 18 mph    
Max Gust Speed 30 mph    
Visibility 5 miles    
Events Fog , Rain    
Averages and records for this station are not official NWS values.
T = Trace of Precipitation, MM = Missing Value Source: NWS Daily Summary

Daily Weather History Graph

Daily Weather History Graph

Search for Another Location

Airport or City:

Trip Planner

Search our weather history database for the weather conditions in past years. The results will help you decide how hot, cold, wet, or windy it might be!

Date:

Astronomy

Mar. 31, 2013 Rise Set
Actual Time 6:37 AM CDT 7:06 PM CDT
Civil Twilight 6:13 AM CDT 7:30 PM CDT
Nautical Twilight 5:45 AM CDT 7:59 PM CDT
Astronomical Twilight 5:16 AM CDT 8:28 PM CDT
Moon 11:57 PM CDT (3/31) 9:42 AM CDT (3/31)
Length of Visible Light 13h 17m
Length of Day
12h 28m
Waning Gibbous, 77% of the Moon is Illuminated
Mar 31
Waning Gibbous
Apr 2
Last Quarter
Apr 10
New
Apr 18
First Quarter
Apr 25
Full

Hourly Weather History & Observations

Time (CDT) Temp. Dew Point Humidity Pressure Visibility Wind Dir Wind Speed Gust Speed Precip Events Conditions
12:56 AM 61.0 °F 57.0 °F 87% 30.04 in 7.0 mi SW 3.5 mph - N/A   Overcast
1:56 AM 61.0 °F 57.0 °F 87% 30.02 in 5.0 mi Calm Calm - N/A   Scattered Clouds
2:03 AM 59.0 °F 55.4 °F 88% 30.06 in 1.5 mi Calm Calm - N/A   Scattered Clouds
2:14 AM 59.0 °F 55.4 °F 88% 30.05 in 0.8 mi Calm Calm - N/A   Partly Cloudy
2:24 AM 57.2 °F 55.4 °F 94% 30.05 in 0.2 mi Calm Calm - N/A Fog Fog
2:35 AM 57.2 °F 55.4 °F 94% 30.05 in 1.0 mi Calm Calm - N/A   Clear
2:42 AM 55.4 °F 53.6 °F 94% 30.05 in 0.2 mi Calm Calm - N/A Fog Fog
2:49 AM 55.4 °F 53.6 °F 94% 30.05 in 0.2 mi Calm Calm - N/A Fog Fog
2:56 AM 57.0 °F 54.0 °F 89% 30.01 in 0.2 mi Calm Calm - N/A Fog Fog
3:20 AM 57.2 °F 55.4 °F 94% 30.04 in 0.8 mi Calm Calm - N/A   Mostly Cloudy
3:29 AM 59.0 °F 55.4 °F 88% 30.04 in 1.5 mi SSW 3.5 mph - N/A   Mostly Cloudy
3:41 AM 60.8 °F 57.2 °F 88% 30.04 in 0.8 mi Calm Calm - N/A   Mostly Cloudy
3:45 AM 59.0 °F 55.4 °F 88% 30.03 in 2.0 mi Calm Calm - N/A   Scattered Clouds
3:52 AM 59.0 °F 55.4 °F 88% 30.03 in 4.0 mi Calm Calm - N/A   Partly Cloudy
3:56 AM 59.0 °F 55.9 °F 90% 29.99 in 5.0 mi Calm Calm - N/A   Partly Cloudy
4:18 AM 59.0 °F 55.4 °F 88% 30.03 in 5.0 mi Calm Calm - N/A   Mostly Cloudy
4:24 AM 57.2 °F 55.4 °F 94% 30.02 in 1.8 mi Calm Calm - N/A   Mostly Cloudy
4:40 AM 57.2 °F 55.4 °F 94% 30.02 in 0.5 mi Calm Calm - N/A Fog Fog
4:44 AM 57.2 °F 55.4 °F 94% 30.02 in 0.2 mi Calm Calm - N/A Fog Fog
4:56 AM 57.0 °F 54.0 °F 89% 29.99 in 0.2 mi Calm Calm - N/A Fog Fog
5:13 AM 55.4 °F 53.6 °F 94% 30.02 in 0.2 mi SSE 3.5 mph - N/A Fog Fog
5:24 AM 55.4 °F 53.6 °F 94% 30.02 in 0.2 mi Calm Calm - N/A Fog Fog
5:35 AM 53.6 °F 51.8 °F 94% 30.02 in 0.2 mi Calm Calm - N/A Fog Fog
5:56 AM 52.0 °F 50.0 °F 93% 29.99 in 0.2 mi Calm Calm - N/A Fog Fog
6:20 AM 53.6 °F 50.0 °F 88% 30.03 in 0.2 mi SE 3.5 mph - N/A Fog Fog
6:32 AM 53.6 °F 50.0 °F 88% 30.03 in 0.2 mi Calm Calm - N/A Fog Fog
6:56 AM 53.1 °F 51.1 °F 93% 30.00 in 0.2 mi Calm Calm - N/A Fog Fog
7:53 AM 60.8 °F 57.2 °F 88% 30.05 in 0.2 mi Calm Calm - N/A Fog Fog
7:56 AM 60.1 °F 57.9 °F 93% 30.01 in 0.2 mi Calm Calm - N/A Fog Fog
8:12 AM 62.6 °F 59.0 °F 88% 30.05 in 1.0 mi Calm Calm - N/A   Mist
8:19 AM 62.6 °F 60.8 °F 94% 30.05 in 3.0 mi SSE 3.5 mph - N/A   Mostly Cloudy
8:32 AM 64.4 °F 60.8 °F 88% 30.05 in 7.0 mi Calm Calm - N/A   Scattered Clouds
8:56 AM 66.9 °F 61.0 °F 81% 30.01 in 9.0 mi SSW 4.6 mph - N/A   Clear
9:46 AM 69.8 °F 60.8 °F 73% 30.05 in 10.0 mi WSW 9.2 mph - N/A   Mostly Cloudy
9:53 AM 72.0 °F 61.0 °F 68% 30.00 in 10.0 mi SW 6.9 mph - N/A   Scattered Clouds
10:08 AM 71.6 °F 60.8 °F 69% 30.04 in 10.0 mi SW 5.8 mph - N/A   Mostly Cloudy
10:41 AM 75.2 °F 57.2 °F 53% 30.04 in 10.0 mi West 6.9 mph - 0.00 in   Mostly Cloudy
10:56 AM 73.0 °F 57.9 °F 59% 29.99 in 10.0 mi Variable 4.6 mph - 0.00 in   Mostly Cloudy
11:56 AM 75.0 °F 57.9 °F 55% 29.99 in 10.0 mi WSW 5.8 mph - N/A   Mostly Cloudy
12:56 PM 75.9 °F 57.9 °F 54% 29.96 in 10.0 mi SSW 8.1 mph - N/A   Mostly Cloudy
1:56 PM 79.0 °F 57.0 °F 47% 29.94 in 10.0 mi SSW 15.0 mph 19.6 mph N/A   Scattered Clouds
2:56 PM 77.0 °F 55.9 °F 48% 29.92 in 10.0 mi South 17.3 mph 23.0 mph N/A   Scattered Clouds
3:56 PM 77.0 °F 57.0 °F 50% 29.91 in 10.0 mi South 18.4 mph 29.9 mph N/A   Partly Cloudy
4:56 PM 75.9 °F 57.0 °F 52% 29.88 in 10.0 mi South 16.1 mph 23.0 mph N/A   Mostly Cloudy
5:56 PM 71.1 °F 59.0 °F 66% 29.90 in 10.0 mi South 15.0 mph - N/A   Overcast
6:56 PM 69.1 °F 60.1 °F 73% 29.91 in 10.0 mi South 12.7 mph - N/A   Overcast
7:56 PM 68.0 °F 60.1 °F 76% 29.91 in 10.0 mi South 12.7 mph - N/A   Overcast
8:37 PM 68.0 °F 60.8 °F 78% 29.97 in 6.0 mi SW 8.1 mph - 0.00 in Rain Light Rain
8:56 PM 66.9 °F 61.0 °F 81% 29.93 in 6.0 mi SW 8.1 mph - 0.00 in Rain Light Rain
9:05 PM 66.2 °F 60.8 °F 83% 29.97 in 9.0 mi WSW 4.6 mph - 0.00 in   Overcast
9:21 PM 66.2 °F 60.8 °F 83% 29.96 in 6.0 mi SSW 4.6 mph - 0.00 in Rain Light Rain
9:56 PM 66.9 °F 62.1 °F 84% 29.91 in 9.0 mi South 6.9 mph - 0.00 in   Overcast
10:56 PM 64.0 °F 61.0 °F 90% 29.89 in 7.0 mi SSW 5.8 mph - N/A   Partly Cloudy
11:46 PM 64.4 °F 62.6 °F 94% 29.92 in 6.0 mi SSW 4.6 mph - N/A   Overcast
11:56 PM 66.0 °F 62.1 °F 87% 29.88 in 6.0 mi SSW 5.8 mph - N/A   Overcast